Weather History for KARV - April, 2013

Change the Weather History Date:

Tuesday, April 23, 2013

  Actual Average Record
Temperature  
Mean Temperature 29 °F -  
Max Temperature 35 °F 56 °F 89 °F (1980)
Min Temperature 23 °F 31 °F 11 °F (1909)
Degree Days  
Heating Degree Days 36    
Moisture  
Dew Point 28 °F    
Average Humidity 86    
Maximum Humidity 100    
Minimum Humidity 60    
Precipitation  
Precipitation 0.19 in - - ()
Sea Level Pressure  
Sea Level Pressure 29.96 in    
Wind  
Wind Speed 8 mph (North)    
Max Wind Speed 16 mph    
Max Gust Speed 24 mph    
Visibility 7 miles    
Events Snow    
Averages and records for this station are not official NWS values.
T = Trace of Precipitation, MM = Missing Value Source: NWS Daily Summary

Daily Weather History Graph

Daily Weather History Graph

Search for Another Location

Airport or City:

Trip Planner

Search our weather history database for the weather conditions in past years. The results will help you decide how hot, cold, wet, or windy it might be!

Date:

Astronomy

Apr. 23, 2013 Rise Set
Actual Time 5:58 AM CDT 7:56 PM CDT
Civil Twilight 5:26 AM CDT 8:28 PM CDT
Nautical Twilight 4:46 AM CDT 9:08 PM CDT
Astronomical Twilight 4:03 AM CDT 9:52 PM CDT
Moon 5:46 PM CDT (4/23) 4:33 AM CDT (4/23)
Length of Visible Light 15h 02m
Length of Day
13h 58m
Waxing Gibbous, 94% of the Moon is Illuminated
Apr 23
Waxing Gibbous
Apr 25
Full
May 2
Last Quarter
May 9
New
May 17
First Quarter

Hourly Weather History & Observations

Time (CDT) Temp. Windchill Dew Point Humidity Pressure Visibility Wind Dir Wind Speed Gust Speed Precip Events Conditions
12:15 AM 32.0 °F 28.7 °F 30.2 °F 93% 30.01 in 4.0 mi ENE 3.5 mph - 0.01 in Snow Light Snow
12:35 AM 32.0 °F 28.7 °F 30.2 °F 93% 30.00 in 5.0 mi NNE 3.5 mph - 0.02 in Snow Light Snow
12:55 AM 32.0 °F 27.5 °F 32.0 °F 100% 29.99 in 2.0 mi NE 4.6 mph - 0.03 in Snow Light Snow
1:15 AM 32.0 °F 27.5 °F 32.0 °F 100% 29.98 in 2.5 mi NE 4.6 mph - 0.01 in Snow Light Snow
1:35 AM 32.0 °F 26.4 °F 32.0 °F 100% 29.96 in 4.0 mi NE 5.8 mph - 0.02 in Snow Light Snow
1:55 AM 32.0 °F 26.4 °F 32.0 °F 100% 29.94 in 2.5 mi ENE 5.8 mph - 0.03 in Snow Light Snow
2:15 AM 32.0 °F 26.4 °F 32.0 °F 100% 29.93 in 4.0 mi NE 5.8 mph - 0.02 in Snow Light Snow
2:35 AM 32.0 °F 24.8 °F 32.0 °F 100% 29.92 in 4.0 mi NNE 8.1 mph - 0.04 in Snow Light Snow
2:55 AM 32.0 °F 26.4 °F 30.2 °F 93% 29.91 in 4.0 mi North 5.8 mph - 0.06 in Snow Light Snow
3:15 AM 32.0 °F 25.6 °F 30.2 °F 93% 29.91 in 1.8 mi North 6.9 mph - 0.02 in Snow Light Snow
3:35 AM 32.0 °F 24.8 °F 30.2 °F 93% 29.91 in 2.0 mi North 8.1 mph - 0.04 in Snow Light Snow
3:55 AM 32.0 °F 23.6 °F 30.2 °F 93% 29.90 in 2.0 mi North 10.4 mph - 0.05 in Snow Light Snow
4:15 AM 32.0 °F 23.6 °F 30.2 °F 93% 29.92 in 2.0 mi North 10.4 mph - 0.01 in Snow Light Snow
4:35 AM 32.0 °F 23.6 °F 30.2 °F 93% 29.91 in 2.5 mi North 10.4 mph - 0.02 in Snow Light Snow
4:55 AM 32.0 °F 24.2 °F 30.2 °F 93% 29.91 in 3.0 mi North 9.2 mph 16.1 mph 0.02 in Snow Light Snow
5:15 AM 32.0 °F 22.5 °F 30.2 °F 93% 29.90 in 4.0 mi North 12.7 mph 18.4 mph N/A Snow Light Snow
5:35 AM 32.0 °F 23.6 °F 30.2 °F 93% 29.89 in 5.0 mi North 10.4 mph 18.4 mph N/A Snow Light Snow
5:55 AM 32.0 °F 23.6 °F 30.2 °F 93% 29.89 in 3.0 mi North 10.4 mph 18.4 mph N/A Snow Light Snow
6:15 AM 32.0 °F 24.2 °F 30.2 °F 93% 29.90 in 1.8 mi North 9.2 mph - N/A Snow Light Snow
6:35 AM 32.0 °F 23.6 °F 30.2 °F 93% 29.91 in 3.0 mi North 10.4 mph 19.6 mph N/A Snow Light Snow
6:55 AM 32.0 °F 23.0 °F 30.2 °F 93% 29.91 in 4.0 mi North 11.5 mph - N/A Snow Light Snow
7:15 AM 32.0 °F 23.6 °F 30.2 °F 93% 29.93 in 2.0 mi North 10.4 mph - N/A Snow Light Snow
7:35 AM 32.0 °F 23.0 °F 30.2 °F 93% 29.94 in 1.5 mi NNW 11.5 mph - N/A Snow Light Snow
7:55 AM 32.0 °F 22.5 °F 30.2 °F 93% 29.94 in 1.2 mi North 12.7 mph 19.6 mph N/A Snow Light Snow
8:15 AM 32.0 °F 22.5 °F 30.2 °F 93% 29.94 in 1.5 mi North 12.7 mph 19.6 mph N/A Snow Light Snow
8:35 AM 32.0 °F 22.1 °F 30.2 °F 93% 29.95 in 1.8 mi North 13.8 mph - N/A Snow Light Snow
8:55 AM 32.0 °F 22.5 °F 30.2 °F 93% 29.94 in 5.0 mi North 12.7 mph - N/A Snow Light Snow
9:15 AM 32.0 °F 21.2 °F 28.4 °F 87% 29.94 in 10.0 mi North 16.1 mph - N/A Snow Light Snow
9:35 AM 32.0 °F 21.6 °F 28.4 °F 87% 29.95 in 10.0 mi NNW 15.0 mph 24.2 mph N/A   Overcast
9:55 AM 32.0 °F 22.5 °F 28.4 °F 87% 29.95 in 10.0 mi NNW 12.7 mph - N/A   Overcast
10:15 AM 32.0 °F 23.0 °F 30.2 °F 93% 29.95 in 10.0 mi North 11.5 mph 19.6 mph N/A   Overcast
10:35 AM 32.0 °F 21.2 °F 30.2 °F 93% 29.95 in 7.0 mi NNW 16.1 mph 20.7 mph N/A   Overcast
10:55 AM 32.0 °F 24.8 °F 30.2 °F 93% 29.96 in 7.0 mi NNW 8.1 mph 16.1 mph N/A   Overcast
11:15 AM 33.8 °F 26.4 °F 30.2 °F 87% 29.98 in 10.0 mi NNW 9.2 mph 16.1 mph N/A   Overcast
11:35 AM 33.8 °F 24.8 °F 30.2 °F 87% 29.98 in 10.0 mi NNW 12.7 mph - N/A   Overcast
11:55 AM 33.8 °F 24.3 °F 30.2 °F 87% 29.96 in 10.0 mi NNW 13.8 mph 18.4 mph N/A   Overcast
12:15 PM 33.8 °F 25.3 °F 30.2 °F 87% 29.97 in 10.0 mi North 11.5 mph - N/A   Overcast
12:35 PM 32.0 °F 21.6 °F 30.2 °F 93% 29.98 in 2.5 mi NNW 15.0 mph 19.6 mph N/A   Overcast
12:55 PM 32.0 °F 21.6 °F 28.4 °F 87% 29.98 in 5.0 mi North 15.0 mph - N/A   Overcast
1:15 PM 32.0 °F 23.6 °F 28.4 °F 87% 29.98 in 10.0 mi North 10.4 mph 16.1 mph N/A   Overcast
1:35 PM 33.8 °F 25.8 °F 28.4 °F 81% 29.98 in 10.0 mi North 10.4 mph - N/A   Overcast
1:55 PM 33.8 °F 25.3 °F 28.4 °F 81% 29.97 in 10.0 mi North 11.5 mph - N/A   Overcast
2:15 PM 33.8 °F 26.4 °F 28.4 °F 81% 29.98 in 10.0 mi North 9.2 mph - N/A   Overcast
2:35 PM 33.8 °F 25.8 °F 28.4 °F 81% 29.99 in 10.0 mi NNW 10.4 mph - N/A   Overcast
2:55 PM 33.8 °F 27.0 °F 28.4 °F 81% 29.98 in 10.0 mi NNW 8.1 mph - N/A   Overcast
3:15 PM 33.8 °F 27.0 °F 28.4 °F 81% 29.98 in 10.0 mi NNW 8.1 mph - N/A   Overcast
3:35 PM 33.8 °F 25.3 °F 28.4 °F 81% 29.98 in 10.0 mi NNW 11.5 mph - N/A   Overcast
3:55 PM 33.8 °F 24.3 °F 28.4 °F 81% 29.98 in 10.0 mi NNW 13.8 mph - N/A   Overcast
4:15 PM 33.8 °F 26.4 °F 28.4 °F 81% 29.98 in 10.0 mi NNW 9.2 mph - N/A   Overcast
4:35 PM 33.8 °F 24.8 °F 26.6 °F 75% 29.98 in 10.0 mi NNW 12.7 mph - N/A   Overcast
4:55 PM 33.8 °F 25.3 °F 26.6 °F 75% 29.98 in 10.0 mi North 11.5 mph - N/A   Overcast
5:15 PM 33.8 °F 27.7 °F 26.6 °F 75% 29.98 in 10.0 mi NNW 6.9 mph - N/A   Overcast
5:35 PM 33.8 °F 25.3 °F 24.8 °F 70% 29.98 in 10.0 mi North 11.5 mph 17.3 mph N/A   Mostly Cloudy
5:55 PM 35.6 °F 28.6 °F 26.6 °F 70% 29.98 in 10.0 mi North 9.2 mph - N/A   Mostly Cloudy
6:15 PM 35.6 °F 28.6 °F 24.8 °F 65% 29.98 in 10.0 mi North 9.2 mph - N/A   Scattered Clouds
6:35 PM 35.6 °F 28.0 °F 23.0 °F 60% 29.97 in 10.0 mi NW 10.4 mph - N/A   Scattered Clouds
6:55 PM 35.6 °F 28.6 °F 23.0 °F 60% 29.97 in 10.0 mi NNW 9.2 mph - N/A   Scattered Clouds
7:15 PM 35.6 °F 28.6 °F 23.0 °F 60% 29.97 in 10.0 mi North 9.2 mph - N/A   Clear
7:35 PM 33.8 °F 28.6 °F 21.2 °F 60% 29.98 in 10.0 mi NNW 5.8 mph - N/A   Clear
7:55 PM 32.0 °F - 23.0 °F 69% 29.98 in 10.0 mi Calm Calm - N/A   Clear
8:15 PM 32.0 °F - 24.8 °F 75% 29.98 in 10.0 mi Calm Calm - N/A   Clear
8:35 PM 32.0 °F - 26.6 °F 80% 29.98 in 10.0 mi Calm Calm - N/A   Clear
8:55 PM 30.2 °F - 26.6 °F 86% 29.98 in 10.0 mi Calm Calm - N/A   Clear
9:15 PM 30.2 °F - 26.6 °F 86% 29.98 in 10.0 mi Calm Calm - N/A   Clear
9:35 PM 28.4 °F - 24.8 °F 86% 29.98 in 10.0 mi Calm Calm - N/A   Clear
9:55 PM 28.4 °F - 24.8 °F 86% 29.98 in 10.0 mi Calm Calm - N/A   Clear
10:15 PM 26.6 °F - 23.0 °F 86% 29.98 in 10.0 mi Calm Calm - N/A   Clear
10:35 PM 24.8 °F - 23.0 °F 93% 29.98 in 7.0 mi Calm Calm - N/A   Clear
10:55 PM 24.8 °F - 23.0 °F 93% 29.98 in 7.0 mi Calm Calm - N/A   Clear
11:15 PM 24.8 °F - 23.0 °F 93% 29.98 in 10.0 mi Calm Calm - N/A   Clear
11:35 PM 23.0 °F - 21.2 °F 93% 29.97 in 10.0 mi Calm Calm - N/A   Clear
11:55 PM 23.0 °F - 21.2 °F 93% 29.96 in 10.0 mi Calm Calm - N/A   Clear